This is the latest recevied weather packets stored in our database for station/object VK3HUG-13. If no packets are shown the sender has not sent any weather packets the latest 10 day(s).
| Time | Temp. | Humidity | Pressure | Rain* | Wind** | Luminosity | Snow |
|---|---|---|---|---|---|---|---|
| 1787796006 | 15° C | 52% | 1029.3 hPa | 0 mm | - | - | - |
| 1787795107 | 15.56° C | 53% | 1029.3 hPa | 0 mm | - | - | - |
| 1787794207 | 16.11° C | 58% | 1029.2 hPa | 0 mm | - | - | - |
| 1787793307 | 13.33° C | 62% | 1030.6 hPa | 0 mm | - | - | - |
| 1787792407 | 11.67° C | 68% | 1030.9 hPa | 0 mm | - | - | - |
| 1787791508 | 11.11° C | 67% | 1029.9 hPa | 0 mm | - | - | - |
| 1787790606 | 11.11° C | 68% | 1030.9 hPa | 0 mm | - | - | - |
| 1787789706 | 11.11° C | 70% | 1030.9 hPa | 0 mm | - | - | - |
| 1787788806 | 11.11° C | 73% | 1031 hPa | 0 mm | - | - | - |
| 1787787906 | 10° C | 75% | 1031.1 hPa | 0 mm | - | - | - |
| 1787787009 | 10.56° C | 77% | 1031.1 hPa | 0 mm | - | - | - |
| 1787786106 | 12.22° C | 86% | 1030.8 hPa | 0 mm | - | - | - |
| 1787785207 | 10.56° C | 95% | 1031 hPa | 0 mm | - | - | - |
| 1787784306 | 8.89° C | 98% | 1031.3 hPa | 0 mm | - | - | - |
| 1787783407 | 9.44° C | 99% | 1031.2 hPa | 0 mm | - | - | - |
| 1787782507 | 8.33° C | 100% | 1030.3 hPa | 0 mm | - | - | - |
| 1787781607 | 6.11° C | 1% | 1030.6 hPa | 0 mm | - | - | - |
| 1787780707 | 5° C | 1% | 1030.8 hPa | 0 mm | - | - | - |
| 1787779807 | 4.44° C | 2% | 1030.9 hPa | 0 mm | - | - | - |
| 1787778908 | 4.44° C | 1% | 1030.9 hPa | 0 mm | - | - | - |
| 1787778006 | 4.44° C | 1% | 1030.9 hPa | 0 mm | - | - | - |
| 1787777107 | 4.44° C | 1% | 1029.9 hPa | 0 mm | - | - | - |
| 1787776208 | 4.44° C | 1% | 1029.8 hPa | 0 mm | - | - | - |
| 1787775307 | 3.89° C | 1% | 1029.9 hPa | 0 mm | - | - | - |
| 1787774406 | 3.89° C | 1% | 1029.9 hPa | 0 mm | - | - | - |
* Rain latest hour (hover to see other rain measurements)
** Current wind speed in m/s (hover to see current wind gust speed)